Weather Roundup
Issued by NWS Corpus Christi, TX

Home | Current Version | Previous Version | Text Only | Print | Product List | Glossary On
Versions: 1 2 3 4 5 6 7 8 9 10 11 12 13 14 15 16 17 18 19 20 21 22 23 24 25 26 27 28 29 30 31 32 33 34 35 36 37 38 39 40 41 42 43 44 45 46 47 48 49 50
000
ASUS44 KCRP 291310
HRRCRP

SOUTH TEXAS REGIONAL WEATHER ROUNDUP
NATIONAL WEATHER SERVICE CORPUS CHRISTI TX
800 AM CDT SAT AUG 29 2015


TXZ229>244-291400-
...CORPUS CHRISTI AREA OBSERVATIONS...

CITY           SKY/WX    TMP DP  RH WIND       PRES   REMARKS
CORPUS CHRISTI MOSUNNY   71  62  73 N3        30.01R
NAS CORPUS CHR SUNNY     75  68  78 W3        30.00R
ROCKPORT       PTSUNNY   77  67  71 W3        30.00R
KINGSVILLE NAS SUNNY     70  67  90 CALM      30.01R
ALICE          SUNNY     67  65  93 CALM      30.01R
FALFURRIAS     SUNNY     65  62  89 CALM      30.01R
$$

...VICTORIA AREA OBSERVATIONS...

CITY           SKY/WX    TMP DP  RH WIND       PRES   REMARKS
VICTORIA       SUNNY     70  69  97 N3        30.03R
BEEVILLE       FAIR      68  67  98 N3        30.03R
PLEASANTON     CLEAR     66  63  90 CALM      30.05R
SAN ANTONIO    SUNNY     72  64  76 NW3       30.05R
$$

...LAREDO AREA OBSERVATIONS...

CITY           SKY/WX    TMP DP  RH WIND       PRES   REMARKS
LAREDO         CLEAR     73  64  73 E6        30.02R
COTULLA        CLEAR     71  63  75 CALM      30.03R
DEL RIO        CLEAR     72  61  68 E8        30.03R
MCALLEN        CLEAR     78  66  66 E5        30.00R
HEBBRONVILLE   NOT AVBL
$$

...OTHER TEXAS OBSERVATIONS...

CITY           SKY/WX    TMP DP  RH WIND       PRES   REMARKS
BROWNSVILLE    SUNNY     71  67  87 NE3       29.99R
HOUSTON        MOSUNNY   72  70  93 CALM      30.03R
COL. STATION   SUNNY     72  68  87 CALM      30.05R
AUSTIN         MOSUNNY   67  65  93 CALM      30.04R
WACO           CLOUDY    77  65  66 S9        30.04R
FORT WORTH     PTSUNNY   79  64  60 S8        30.00R
WICHITA FALLS  MOSUNNY   73  64  73 SE6       29.96S
LUBBOCK        CLOUDY    70  64  81 SW6       30.14R
EL PASO        MOCLDY    71  60  68 N8        30.14R
$$

...MARINE OBSERVATIONS...

STATION/POSITION TIME  SKY/WX   TEMP    WIND        PRES    VSBY  WAVE   SWELL
                                AIR SEA DIR/SP/G                  HT/PER HT/PER
                 (UTC)          (F)     (DEG/KT/KT) (MB)    (MI)  (FT/S) (FT/S)
PORT ARANSAS     1300            82 83  240/  4/  5 1016.8R
BUOY 90 E PORT A 1250            83 85  210/  6/  8 1016.2R         1/ 4
BUOY 45 SE BAFFI 1250            82 84  170/  8/ 10 1015.5R         2/ 5   2/ 5
BUOY 200 E PT IS 1250            85 85  110/  4/  6 1016.3R         1/ 4
BUOY 15 E GALVES 1250            83 86  210/  6/  8 1016.3R         1/ 3
$$


USA.gov is the U.S. government's official web portal to all federal, state and local government web resources and services.